Weather History for Norfolk, VA

Change the Weather History Date:

Monday, October 15, 2012

  Actual Average Record
Temperature  
Mean Temperature 69 °F 62 °F  
Max Temperature 76 °F 70 °F 89 °F (1985)
Min Temperature 61 °F 54 °F 31 °F (1876)
Degree Days  
Heating Degree Days 0 4  
Month to date heating degree days 45 43  
Since 1 July heating degree days 49 54  
Cooling Degree Days 4 2  
Month to date cooling degree days 59 40  
Year to date cooling degree days 1841 1605  
Growing Degree Days 18 (Base 50)    
Moisture  
Dew Point 59 °F    
Average Humidity 75    
Maximum Humidity 93    
Minimum Humidity 57    
Precipitation  
Precipitation 0.68 in 0.10 in 1.62 in (2009)
Month to date precipitation 2.58 1.69  
Year to date precipitation 36.53 38.39  
Snow  
Snow 0.00 in 0.00 in 0.00 in (2002)
Month to date snowfall 0.0 0.0  
Since 1 July snowfall 0.0 0.0  
Snow Depth 0.00 in    
Sea Level Pressure  
Sea Level Pressure 29.83 in    
Wind  
Wind Speed 9 mph (SW)    
Max Wind Speed 20 mph    
Max Gust Speed 25 mph    
Visibility 8 miles    
Events Rain    
T = Trace of Precipitation, MM = Missing Value Source: NWS Daily Summary

Daily Weather History Graph

Daily Weather History Graph

Search for Another Location

Airport:

Trip Planner

Search our weather history database for the weather conditions in past years. The results will help you decide how hot, cold, wet, or windy it might be!

Date:

Astronomy

Oct. 15, 2012 Rise Set
Actual Time 7:12 AM EDT 6:27 PM EDT
Civil Twilight 6:46 AM EDT 6:53 PM EDT
Nautical Twilight 6:16 AM EDT 7:23 PM EDT
Astronomical Twilight 5:46 AM EDT 7:53 PM EDT
Moon 7:19 AM EDT (10/15) 6:27 PM EDT (10/15)
Length of Visible Light 12h 06m
Length of Day
11h 14m
New Moon, 0% of the Moon is Illuminated
Oct 15
New Moon
Oct 21
First Quarter
Oct 29
Full
Nov 6
Last Quarter
Nov 13
New

Hourly Weather History & Observations

Time (EDT) Temp. Dew Point Humidity Pressure Visibility Wind Dir Wind Speed Gust Speed Precip Events Conditions
12:51 AM 64.9 °F 57.9 °F 78% 30.01 in 10.0 mi South 10.4 mph - N/A   Clear
1:51 AM 64.0 °F 57.0 °F 78% 29.99 in 10.0 mi South 6.9 mph - N/A   Clear
2:51 AM 62.1 °F 57.0 °F 84% 29.97 in 10.0 mi SW 8.1 mph - N/A   Clear
3:51 AM 62.1 °F 57.9 °F 86% 29.95 in 10.0 mi SSW 8.1 mph - N/A   Clear
4:51 AM 61.0 °F 57.9 °F 90% 29.94 in 10.0 mi SSW 6.9 mph - N/A   Clear
5:51 AM 64.0 °F 57.9 °F 80% 29.92 in 10.0 mi SSW 10.4 mph - N/A   Overcast
6:51 AM 63.0 °F 57.0 °F 81% 29.92 in 10.0 mi SSW 9.2 mph - N/A   Clear
7:51 AM 63.0 °F 57.9 °F 84% 29.91 in 10.0 mi SSW 9.2 mph - N/A   Clear
8:51 AM 64.9 °F 59.0 °F 81% 29.91 in 10.0 mi SSW 11.5 mph - N/A   Clear
9:51 AM 70.0 °F 60.1 °F 71% 29.90 in 10.0 mi SSW 13.8 mph - N/A   Partly Cloudy
10:51 AM 72.0 °F 60.1 °F 66% 29.88 in 10.0 mi SW 16.1 mph 24.2 mph N/A   Partly Cloudy
11:51 AM 73.9 °F 60.1 °F 62% 29.86 in 10.0 mi SW 13.8 mph - N/A   Mostly Cloudy
12:29 PM 73.4 °F 59.0 °F 61% 29.86 in 1.5 mi West 13.8 mph 24.2 mph N/A   Haze
12:40 PM 73.4 °F 60.8 °F 65% 29.85 in 2.5 mi WSW 15.0 mph 24.2 mph N/A   Haze
12:47 PM 73.4 °F 60.8 °F 65% 29.85 in 10.0 mi WSW 15.0 mph 24.2 mph N/A   Mostly Cloudy
12:51 PM 73.9 °F 60.1 °F 62% 29.84 in 3.0 mi WSW 16.1 mph 24.2 mph N/A   Haze
1:11 PM 73.4 °F 60.8 °F 65% 29.83 in 1.8 mi West 13.8 mph 24.2 mph N/A   Haze
1:21 PM 71.6 °F 59.0 °F 64% 29.83 in 10.0 mi WSW 13.8 mph 21.9 mph N/A   Overcast
1:51 PM 72.0 °F 59.0 °F 64% 29.81 in 10.0 mi West 10.4 mph 16.1 mph N/A   Overcast
2:51 PM 73.9 °F 59.0 °F 59% 29.76 in 10.0 mi WSW 10.4 mph - N/A   Scattered Clouds
3:51 PM 75.0 °F 59.0 °F 57% 29.73 in 10.0 mi South 6.9 mph - N/A   Mostly Cloudy
4:51 PM 73.9 °F 57.9 °F 57% 29.73 in 10.0 mi SSW 8.1 mph - N/A   Scattered Clouds
5:51 PM 73.0 °F 59.0 °F 61% 29.70 in 10.0 mi South 4.6 mph - N/A   Mostly Cloudy
6:51 PM 69.1 °F 60.1 °F 73% 29.69 in 10.0 mi NNE 3.5 mph - N/A   Overcast
7:17 PM 66.2 °F 60.8 °F 83% 29.75 in 1.8 mi WNW 8.1 mph 21.9 mph 0.08 in Rain Heavy Rain
7:29 PM 62.6 °F 60.8 °F 94% 29.74 in 1.0 mi Variable 4.6 mph 16.1 mph 0.46 in Rain Heavy Rain
7:36 PM 62.6 °F 60.8 °F 94% 29.72 in 2.0 mi Variable 4.6 mph - 0.52 in Rain Heavy Rain
7:51 PM 62.1 °F 60.1 °F 93% 29.72 in 2.5 mi SSW 3.5 mph - 0.61 in Rain Rain
8:05 PM 62.6 °F 60.8 °F 94% 29.71 in 7.0 mi SW 6.9 mph - 0.06 in Rain Light Rain
8:51 PM 63.0 °F 60.1 °F 90% 29.72 in 10.0 mi SW 6.9 mph - 0.07 in   Partly Cloudy
9:51 PM 62.1 °F 59.0 °F 90% 29.73 in 10.0 mi SW 8.1 mph - N/A   Clear
10:51 PM 62.1 °F 60.1 °F 93% 29.75 in 10.0 mi WSW 4.6 mph - N/A   Mostly Cloudy
11:39 PM 62.6 °F 55.4 °F 77% 29.77 in 10.0 mi North 11.5 mph 18.4 mph N/A   Overcast
11:51 PM 62.1 °F 55.9 °F 80% 29.78 in 10.0 mi North 11.5 mph - N/A   Overcast